weather.gov     
National Weather Service

Regional Weather Roundup
NWS Homepage
This page is being discontinued on March 12, 2014.
The same data is available at this site. Please update your bookmarks.
Thank you, and we apologize for the inconvenience.
Please send an email to SR-SRH.Webmaster@noaa.gov with any concerns.


Current Version
Previous Version:    01  02  03  04  05  06  07  08  09  10  11  12  13  14  15  16  17  18  19  20  21  22  23  24  25  26  27  28  29  30  
   31  32  33  34  35  36  37  38  39  40  41  42  43  44  45  46  47  48  49  50  51  52  53  54  55  56  57  58  59  60  
[Printable]
783
ASUS43 KBIS 251559
RWRBIS

NWR BROADCAST TEXT
NATIONAL WEATHER SERVICE BISMARCK ND
1100 AM CDT FRI JUL 25 2014

NOTE: "FAIR" INDICATES FEW OR NO CLOUDS BELOW 12,000 FEET WITH NO
SIGNIFICANT WEATHER AND/OR OBSTRUCTIONS TO VISIBILITY.


CITY           SKY/WX    TMP DP  RH WIND       PRES   REMARKS
WILLISTON      SUNNY     71  46  40 SW9G22    29.86F
MINOT          SUNNY     72  51  47 SW14      29.83S
MINOT AFB      NOT AVBL
BISMARCK       SUNNY     76  46  34 NW21      29.85S
DICKINSON      SUNNY     70  46  42 W9        29.93R
GARRISON         N/A     72  52  49 W8        29.86F
HETTINGER ARPT SUNNY     72  44  36 NW12      29.96F
JAMESTOWN      CLOUDY    71  65  81 N8        29.79S
CARRINGTON     FAIR      70  66  88 NW20      29.82R
CROSBY         FAIR      66  50  55 W15G22    29.83F
HARVEY         FAIR      70  50  49 NW13      29.82S
HAZEN          FAIR      72  46  40 NW12      29.88S
LINTON         FAIR      75  64  69 NW14G20   29.85R
MANDAN         FAIR      73  46  38 N18       29.88R
RUGBY          FAIR      68  57  68 NW10      29.81S
TIOGA          FAIR      66  52  59 W12       29.89F
WATFORD CITY   FAIR      68  45  42 W10G17    29.87F
$$

CITY           SKY/WX    TMP DP  RH WIND       PRES   REMARKS
GRAND FORKS    CLOUDY    72  64  76 W3        29.75F
GRAND FORKS AF NOT AVBL
DEVILS LAKE    PTSUNNY   72  63  73 NW17      29.78R
FARGO          CLOUDY    71  64  78 W6        29.77S
CAVALIER       FAIR      77  66  69 SE5       29.72F
GWINNER        CLOUDY    72  72 100 NW10      29.79R
LANGDON        PTSUNNY   73  66  78 W15       29.76S
$$

CITY           SKY/WX    TMP DP  RH WIND       PRES   REMARKS
ABERDEEN       CLOUDY    68  66  93 N15       29.78R
MOBRIDGE       SUNNY     76  64  66 NW16G24   29.82R
BUFFALO          N/A     71  41  33 N7        29.91F
RAPID CITY     SUNNY     73  41  31 N12       30.00F
GLASGOW        SUNNY     73  37  27 W22G31    29.84F
SIDNEY         SUNNY     73  41  31 SW15      29.89F
WOLF POINT     SUNNY     72  43  35 SW12      29.85F
GLENDIVE       SUNNY     73  43  33 SW9       29.92F
MILES CITY     SUNNY     73  48  41 S9        29.92F
BAKER          SUNNY     71  41  33 CALM      29.96F
$$

CITY           SKY/WX    TMP DP  RH WIND       PRES   REMARKS
BILLINGS       SUNNY     69  37  30 SW9       29.99F
GREAT FALLS    SUNNY     66  37  34 SW25G36   29.95R
$$





U.S. Dept. of Commerce
NOAA National Weather Service
1325 East West Highway
Silver Spring, MD 20910
E-mail: w-nws.webmaster@noaa.gov
Page last modified: May 16, 2007
NATIONAL WEATHER SERVICE: for Safety, for Work, for Fun - FOR LIFE